This demonstration page uses our WeatherBlox Daily Observations layout. Learn more.

Left ArrowRight Arrow

40.92945, -100.16068

Hourly Observations for July 9, 2019

Temp ( °F °C ) Dew Point ( °F °C ) Humidity (%) Winds ( mph kmh ) Pressure ( in mb ) Visibility ( mi km ) Precip ( " mm )
12:15 am 00:15 Cloudy with Light Rain 65 18.5 64 18 97 97 NNE 12 19 29.82 1010 10 16 0.05 1.27
12:35 am 00:35 Cloudy with Light Rain 65 18.5 64 18 97 97 ENE 14 22 29.78 1008 10 16 0.07 1.78
12:55 am 00:55 Partly Cloudy 65 18.5 64 17.9 96 96 ENE 16 26 29.76 1008 10 16 0.07 1.78
1:15 am 01:15 Clear with Light Rain 65 18.6 64 17.6 94 94 E 9 15 29.76 1008 10 16 N/A
1:35 am 01:35 Clear 65 18.4 64 17.6 95 95 ENE 8 13 29.75 1007 10 16 N/A
1:55 am 01:55 Clear 65 18.2 64 17.5 96 96 ESE 6 9 29.76 1008 10 16 N/A
2:15 am 02:15 Clear 65 18.2 64 17.7 97 97 SSE 10 17 29.78 1008 10 16 N/A
2:35 am 02:35 Mostly Cloudy with Nearby Thunderstorms 65 18.1 64 17.7 98 98 SSW 12 19 29.80 1009 10 16 N/A
2:55 am 02:55 Mostly Cloudy 65 18.1 64 17.7 98 98 S 10 17 29.80 1009 10 16 N/A
3:15 am 03:15 Partly Cloudy 64 18 64 17.7 98 98 SSW 8 13 29.78 1008 10 16 N/A
3:35 am 03:35 Partly Cloudy 64 18 64 17.7 98 98 SSW 6 9 29.79 1009 10 16 N/A
3:55 am 03:55 Clear 64 18 64 17.8 99 99 SSW 6 9 29.78 1008 10 16 N/A
4:15 am 04:15 Clear 65 18.1 64 18 99 99 SW 9 15 29.79 1009 10 16 N/A
4:35 am 04:35 Partly Cloudy 65 18.1 64 17.8 98 98 SW 9 15 29.78 1008 10 16 N/A
4:55 am 04:55 Partly Cloudy 65 18.1 64 17.8 98 98 SW 8 13 29.78 1008 10 16 N/A
5:15 am 05:15 Clear 64 17.7 64 17.5 99 99 W 6 9 29.81 1010 10 16 N/A
5:35 am 05:35 Clear 63 17.1 63 17.1 100 100 W 5 7 29.82 1010 10 16 N/A
5:55 am 05:55 Mostly Cloudy 63 17 63 17 100 100 W 5 7 29.83 1010 10 16 N/A
6:15 am 06:15 Cloudy 64 17.8 64 17.6 99 99 W 6 9 29.83 1010 10 16 N/A
6:35 am 06:35 Mostly Cloudy 63 17.4 63 17.2 99 99 W 5 7 29.83 1010 10 16 N/A
6:55 am 06:55 Sunny 63 17 63 17 100 100 WNW 5 7 29.85 1011 10 16 N/A
7:15 am 07:15 Sunny 64 17.7 64 17.6 99 99 W 3 6 29.84 1011 10 16 N/A
7:35 am 07:35 Sunny 65 18.2 64 17.7 97 97 W 6 9 29.85 1011 10 16 0.01 0.25
7:55 am 07:55 Sunny 65 18.6 64 17.9 96 96 SW 6 9 29.82 1010 10 16 0.01 0.25
8:15 am 08:15 Sunny 67 19.3 65 18.2 93 93 WSW 6 9 29.83 1010 10 16 N/A
8:35 am 08:35 Sunny 68 20 65 18.3 90 90 WSW 3 6 29.83 1010 10 16 N/A
8:55 am 08:55 Sunny 69 20.7 66 18.9 89 89 WSW 6 9 29.83 1010 10 16 N/A
9:15 am 09:15 Sunny 71 21.5 67 19.2 87 87 WSW 6 9 29.82 1010 10 16 N/A
9:35 am 09:35 Sunny 72 22.3 67 19.5 84 84 WSW 7 11 29.82 1010 10 16 N/A
9:55 am 09:55 Sunny 73 23 67 19.5 81 81 WSW 9 15 29.81 1009 10 16 N/A
10:15 am 10:15 Sunny 75 23.7 67 19.5 77 77 W 7 11 29.81 1010 10 16 N/A
10:35 am 10:35 undefined 76 24.2 67 19.4 75 75 W 9 15 29.81 1009 10 16 N/A
10:55 am 10:55 undefined 76 24.5 67 19.2 72 72 W 13 20 29.80 1009 10 16 N/A
11:15 am 11:15 undefined 76 24.5 67 19.4 73 73 W 9 15 29.80 1009 10 16 N/A
11:35 am 11:35 undefined 76 24.5 67 19.3 73 73 W 10 17 29.82 1010 10 16 N/A
11:55 am 11:55 Sunny 77 25 68 20 74 74 W 8 13 29.82 1010 10 16 N/A
12:15 pm 12:15 Sunny 78 25.5 68 20.2 73 73 W 8 13 29.81 1009 10 16 N/A
12:35 pm 12:35 Sunny 79 25.9 69 20.3 71 71 WSW 8 13 29.81 1010 10 16 N/A
12:55 pm 12:55 Sunny 80 26.6 69 20.8 71 71 W 9 15 29.81 1009 10 16 N/A
1:15 pm 13:15 Sunny 81 27 70 20.9 69 69 W 9 15 29.80 1009 10 16 N/A
1:35 pm 13:35 Sunny 82 27.5 69 20.7 66 66 W 9 15 29.80 1009 10 16 N/A
1:55 pm 13:55 Sunny 83 28.1 66 19.1 58 58 W 12 19 29.79 1009 10 16 N/A
2:15 pm 14:15 Sunny 83 28.3 66 18.7 56 56 WNW 13 20 29.79 1009 10 16 N/A
2:35 pm 14:35 Sunny 83 28.5 64 17.7 52 52 WNW 9 15 29.79 1009 10 16 N/A
2:55 pm 14:55 Sunny 83 28.6 65 18.6 55 55 W 10 17 29.79 1009 10 16 N/A
3:15 pm 15:15 Sunny 84 29 64 17.9 51 51 WNW 9 15 29.79 1009 10 16 N/A
3:35 pm 15:35 Sunny 84 29.1 63 17 48 48 WNW 9 15 29.79 1009 10 16 N/A
3:55 pm 15:55 Sunny 85 29.2 64 17.8 50 50 NW 10 17 29.80 1009 10 16 N/A
4:15 pm 16:15 Sunny 85 29.3 66 19.1 54 54 WNW 8 13 29.80 1009 10 16 N/A
4:35 pm 16:35 Sunny 85 29.5 65 18.6 52 52 NW 8 13 29.80 1009 10 16 N/A
4:55 pm 16:55 Sunny 85 29.2 65 18.5 53 53 NW 6 9 29.80 1009 10 16 N/A
5:15 pm 17:15 Sunny 85 29.5 65 18.6 52 52 NW 8 13 29.79 1009 10 16 N/A
5:35 pm 17:35 Sunny 85 29.3 64 17.8 50 50 WNW 8 13 29.80 1009 10 16 N/A
5:55 pm 17:55 Sunny 85 29.5 64 18 50 50 NW 3 6 29.79 1009 10 16 N/A
6:15 pm 18:15 Sunny 85 29.2 64 17.8 50 50 NW 3 6 29.80 1009 10 16 N/A
6:35 pm 18:35 Sunny 85 29.2 65 18.2 52 52 N N/A 29.80 1009 10 16 N/A
6:55 pm 18:55 Sunny 84 29.1 65 18.3 52 52 N N/A 29.80 1009 10 16 N/A
7:15 pm 19:15 Sunny 85 29.2 63 17.4 49 49 N N/A 29.81 1009 10 16 N/A
7:35 pm 19:35 Sunny 84 28.7 66 19 56 56 N N/A 29.81 1009 10 16 N/A
7:55 pm 19:55 Sunny 83 28.5 66 19 56 56 N N/A 29.81 1010 10 16 N/A
8:15 pm 20:15 Sunny 83 28.4 70 21 64 64 N N/A 29.81 1010 10 16 N/A
8:35 pm 20:35 Sunny 81 27.1 71 21.6 72 72 N N/A 29.82 1010 10 16 N/A
8:55 pm 20:55 Sunny 79 26.1 71 21.7 77 77 N N/A 29.83 1010 10 16 N/A
9:15 pm 21:15 Clear 76 24.3 72 22 87 87 N N/A 29.86 1011 10 16 N/A
9:35 pm 21:35 Clear 75 23.7 71 21.6 88 88 E 3 6 29.87 1012 10 16 N/A
9:55 pm 21:55 Clear 76 24.3 69 20.7 80 80 N N/A 29.87 1011 10 16 N/A
10:15 pm 22:15 Clear 75 24 71 21.4 85 85 N N/A 29.89 1012 10 16 N/A
10:35 pm 22:35 Clear 73 23 68 20.2 84 84 N N/A 29.92 1013 10 16 N/A
10:55 pm 22:55 Clear 74 23.2 68 20.1 83 83 N N/A 29.92 1013 10 16 N/A
11:15 pm 23:15 Clear 71 21.5 69 20.8 96 96 N 6 9 29.94 1014 10 16 N/A
11:35 pm 23:35 Mostly Cloudy 71 21.5 69 20.5 94 94 NNE 5 7 29.94 1014 10 16 N/A
11:55 pm 23:55 Partly Cloudy 70 21 69 20.3 96 96 ENE 6 9 29.93 1014 10 16 N/A

Powered by AerisWeather